[[{"header":{"parameterUnit":"m.s-1","parameterCategory":1,"la1":30.2991,"la2":30.254,"lo1":-89.0895,"lo2":-89.0444,"dy":0.0017,"dx":0.0017,"nx":28,"ny":28,"refTime":"2024-06-21T03:00:00:Z","depth":0,"parameterNumber":2,"parameterNumberName":"U-component_of_WINDS"},"data":[0,0,0,0,0,0,0,0,0,0,0,0,0,0,0,0,0,0,0,0,0,0,0,0,0,0,0,0,0,0,0,0,0,0,0,0,0,0,0,0,0,0,0,0,0,0,0,0,0,0,0,0,0,0,0,0,0,0,-4.9287,-4.9288,0,-4.9402,-4.9403,-4.9404,-4.9282,-4.9277,-4.9272,-4.9268,-4.9386,-4.9393,-4.9401,0,0,0,0,0,0,0,0,0,0,0,0,0,-4.8963,-4.897,-4.9287,-4.9288,-4.929,-4.9401,-4.9403,-4.9404,-4.9283,-4.9277,-4.9271,-4.9266,-4.9383,-4.9392,-4.9401,0,0,0,0,0,0,0,0,0,0,0,0,0,-4.9093,-4.8972,-4.9286,-4.9242,-4.9239,-4.9401,-4.9403,-4.9405,-4.9284,-4.9277,-4.927,-4.9263,-4.938,-4.9391,-4.9403,-4.9614,0,0,-4.9437,-4.9442,0,0,0,0,0,0,0,0,-4.9086,-4.9105,-4.9247,-4.9246,-4.9243,-4.932,-4.9332,-4.9475,-4.9286,-4.9267,-4.9268,-4.926,-4.937,-4.9381,-4.9418,-4.9619,-4.9624,-4.9438,-4.9445,-4.945,-4.9453,0,0,0,0,0,0,0,-4.9077,-4.91,-4.9332,-4.9249,-4.9247,-4.9217,-4.9228,-4.9358,-4.9357,-4.9268,-4.9259,-4.9275,-4.9367,-4.9408,-4.942,-4.9626,-4.9438,-4.9448,-4.9455,-4.9459,-5.0006,-5.0014,0,0,0,0,0,0,-4.9073,-4.9093,-4.9328,-4.9335,-4.9145,-4.9229,-4.9241,-4.9302,-4.9355,-4.9356,-4.9281,-4.9269,-4.9392,-4.9407,-4.9424,-4.9674,-4.945,-4.946,-4.9467,-4.9999,-5.0008,-5.0016,0,0,0,0,0,0,-4.9067,-4.9095,-4.9324,-4.9212,-4.9239,-4.9242,-4.9312,-4.9308,-4.9349,-4.9364,-4.9363,-4.9323,-4.9387,-4.9408,-4.9567,-4.9677,-4.9465,-4.9476,-4.999,-5.0002,-5.0012,-5.0177,0,0,0,0,0,0,-4.9058,-4.9094,-4.9173,-4.9215,-4.9245,-4.9465,-4.9319,-4.9316,-4.9369,-4.9354,-4.9403,-4.9405,-4.9383,-4.9551,-4.9579,-4.9688,-4.9484,-4.998,-4.9995,-5.0009,-5.0162,-5.0193,-5.022,0,0,0,0,0,-4.9047,-4.9215,-4.9178,-4.9207,-4.9345,-4.9472,-4.9489,-4.9461,-4.9378,-4.9458,-4.9469,-4.9403,-4.9661,-4.9569,-4.9598,-4.9713,-4.9973,-4.9991,-5.0007,-5.0149,-5.0187,-5.0219,0,0,0,0,0,0,-4.9186,-4.922,-4.9179,-4.9366,-4.9417,-4.9451,-4.9551,-4.9502,-4.9578,-4.9561,-4.9523,-4.9535,-4.9704,-4.9725,-4.9621,-4.9921,-4.9803,-4.9828,-4.9901,-4.9937,-4.9965,-4.9956,-4.9494,0,0,0,0,0,-4.9239,-4.9339,-4.9363,-4.9525,-4.9553,-4.9549,-4.9602,-4.9576,-4.9628,-4.9649,-4.967,-4.9723,-4.9816,-4.9878,-4.9964,-5.0165,-5.0174,-5.0259,-5.0288,-5.0311,-5.0332,-5.0441,-5.0479,-5.0074,-5.0074,-5.0073,0,0,-4.9348,-4.9379,-4.9444,-4.9554,-4.959,-4.9695,-4.9567,-4.9683,-4.976,-4.9666,-4.9818,-4.9836,-4.9893,-5.0074,-5.0155,-5.0097,-5.0447,-5.0334,-5.0352,-5.036,-5.0463,-5.0501,-5.0535,-5.0086,-5.0083,-5.0082,0,0,-4.96,-4.9634,-4.9773,-4.9813,-4.987,-4.9866,-4.99,-4.9942,-4.9951,-5.0102,-5.0034,-5.0126,-5.0287,-5.033,-5.0373,-5.0645,-5.0588,-5.0674,-5.0824,-5.093,-5.0962,-5.099,-5.1086,-5.1122,-5.0695,-5.0696,-5.0696,0,-4.9728,-4.9883,-4.985,-4.9972,-5.0022,-4.9943,-5.0084,-5.0124,-5.0207,-5.0244,-5.0178,-5.0379,-5.0411,-5.0601,-5.0668,-5.0706,-5.0743,-5.0667,-5.096,-5.0988,-5.1014,-5.1105,-5.1142,-5.0706,-5.0705,-5.0704,-5.0703,0,-5.0038,-5.0146,-5.0252,-5.0334,-5.0397,-5.0528,-5.0515,-5.0583,-5.0553,-5.0556,-5.0713,-5.0749,-5.0842,-5.0886,-5.0857,-5.1073,-5.1035,-5.0966,-5.0846,-5.1063,-5.1148,-5.1183,-5.072,-5.0717,-5.0714,-5.0711,0,0,-5.0378,-5.0442,-5.0481,-5.0518,-5.0577,-5.066,-5.0788,-5.0879,-5.0938,-5.0999,-5.1105,-5.1244,-5.118,-5.1229,-5.1205,-5.1299,-5.1511,-5.1217,-5.1218,-5.127,-5.1752,-5.1803,-5.1844,-5.1475,-5.1481,-5.1487,-5.1747,0,-5.063,-5.0851,-5.0827,-5.1038,-5.1138,-5.1066,-5.1177,-5.1226,-5.1233,-5.132,-5.1328,-5.1427,-5.1336,-5.1365,-5.1455,-5.1467,-5.1607,-5.1448,-5.1573,-5.1578,-5.1559,-5.1888,-5.1942,-5.2186,-5.178,-5.1786,-5.179,0,-5.0953,-5.1026,-5.1247,-5.1292,-5.1333,-5.1433,-5.1515,-5.1599,-5.1653,-5.1652,-5.1709,-5.1669,-5.1798,-5.1678,-5.1856,-5.1748,-5.1798,-5.1812,-5.1821,-5.183,-5.1696,-5.1905,-5.2263,-5.2299,-5.1842,-5.1838,-5.1834,0,-5.1178,-5.1332,-5.1484,-5.1518,-5.1574,-5.1646,-5.1673,-5.172,-5.1777,-5.1849,-5.1886,-5.1972,-5.202,-5.2088,-5.2073,-5.1987,-5.2255,-5.2134,-5.2258,-5.2258,-5.2315,-5.2311,-5.2684,-5.2351,-5.235,-5.235,-5.2349,0,-5.1462,-5.1599,-5.1585,-5.1679,-5.1832,-5.1804,-5.1956,-5.1974,-5.2017,-5.2113,-5.2057,-5.2148,-5.2124,-5.2215,-5.2204,-5.2353,-5.2375,-5.2378,-5.2373,-5.2382,-5.2382,-5.2413,-5.2395,-5.2359,-5.2357,-5.2355,-5.2354,0,-5.1737,-5.1734,-5.1894,-5.1935,-5.1949,-5.206,-5.2094,-5.2183,-5.2187,-5.2309,-5.2337,-5.2343,-5.2448,-5.244,-5.2558,-5.2551,-5.2735,-5.2711,-5.2716,-5.271,-5.2834,-5.2822,-5.3239,-5.3292,-5.2926,-5.2929,-5.2932,0,-5.1917,-5.2022,-5.2074,-5.2135,-5.2166,-5.2265,-5.2322,-5.23,-5.2362,-5.2434,-5.2514,-5.2613,-5.2691,-5.2862,-5.2877,-5.2967,-5.2944,-5.3084,-5.2957,-5.2963,-5.2945,-5.2939,-5.2949,-5.3108,-5.3113,-5.3116,-5.3119,0,-5.2237,-5.2231,-5.2316,-5.2402,-5.2473,-5.2539,-5.26,-5.2653,-5.2637,-5.271,-5.2816,-5.2877,-5.2998,-5.3097,-5.3184,-5.3212,-5.3164,-5.3159,-5.3192,-5.3202,-5.32,-5.3202,-5.2783,-5.3149,-5.3146,-5.3144,-5.3142,-5.3141,-5.2469,-5.2559,-5.261,-5.2708,-5.2752,-5.281,-5.2895,-5.2911,-5.2999,-5.3095,-5.3077,-5.3197,-5.325,-5.3361,-5.3398,-5.3492,-5.3441,-5.349,-5.3502,-5.3514,-5.3527,-5.3187,-5.3507,-5.3507,-5.3506,-5.3505,-5.3504,0,-5.2785,-5.2815,-5.2905,-5.2992,-5.307,-5.3018,-5.3083,-5.3151,-5.3257,-5.3311,-5.339,-5.3513,-5.361,-5.3634,-5.3727,-5.3798,-5.3778,-5.3823,-5.3816,-5.3824,-5.3567,-5.3529,-5.3837,-5.3837,-5.3837,-5.3837,-5.3837,-5.3837,-5.2958,-5.3107,-5.3108,-5.3279,-5.3308,-5.3424,-5.3466,-5.352,-5.3563,-5.3702,-5.3783,-5.3798,-5.3841,-5.3937,-5.4025,-5.4029,-5.4066,-5.412,-5.4116,-5.3875,-5.3842,-5.381,-5.3773,-5.4128,-5.4129,-5.4364,-5.4366,-5.4368]},{"header":{"parameterUnit":"m.s-1","parameterCategory":1,"la1":30.2991,"la2":30.254,"lo1":-89.0895,"lo2":-89.0444,"dy":0.0017,"dx":0.0017,"nx":28,"ny":28,"refTime":"2024-06-21T03:00:00:Z","depth":0,"parameterNumber":3,"parameterNumberName":"V-component_of_WINDS"},"data":[0,0,0,0,0,0,0,0,0,0,0,0,0,0,0,0,0,0,0,0,0,0,0,0,0,0,0,0,0,0,0,0,0,0,0,0,0,0,0,0,0,0,0,0,0,0,0,0,0,0,0,0,0,0,0,0,0,0,-0.122,-0.1219,0,-0.1115,-0.1114,-0.1113,-0.1033,-0.1033,-0.1032,-0.1031,-0.0923,-0.0921,-0.0919,0,0,0,0,0,0,0,0,0,0,0,0,0,-0.135,-0.1348,-0.122,-0.1219,-0.1218,-0.1115,-0.1114,-0.1112,-0.1034,-0.1033,-0.1032,-0.1031,-0.0924,-0.0921,-0.0919,0,0,0,0,0,0,0,0,0,0,0,0,0,-0.1274,-0.1347,-0.1221,-0.1166,-0.116,-0.1116,-0.1114,-0.1112,-0.1034,-0.1033,-0.1032,-0.1031,-0.0925,-0.0921,-0.0918,-0.0919,0,0,-0.0908,-0.0907,0,0,0,0,0,0,0,0,-0.1279,-0.1269,-0.1175,-0.117,-0.1163,-0.1086,-0.112,-0.1047,-0.1034,-0.1082,-0.1031,-0.103,-0.0978,-0.097,-0.0953,-0.0914,-0.091,-0.0908,-0.0906,-0.0904,-0.0903,0,0,0,0,0,0,0,-0.1284,-0.1273,-0.1179,-0.1174,-0.1167,-0.1146,-0.1134,-0.1106,-0.1037,-0.1078,-0.1072,-0.106,-0.0975,-0.0956,-0.095,-0.0908,-0.0908,-0.0905,-0.0903,-0.0902,-0.0861,-0.0862,0,0,0,0,0,0,-0.1298,-0.1278,-0.1182,-0.1175,-0.1219,-0.1144,-0.1131,-0.1112,-0.1037,-0.1025,-0.1061,-0.1057,-0.0963,-0.0954,-0.0946,-0.094,-0.0904,-0.0901,-0.0899,-0.086,-0.0861,-0.0862,0,0,0,0,0,0,-0.1301,-0.129,-0.1186,-0.1225,-0.121,-0.1143,-0.1123,-0.1111,-0.1092,-0.1025,-0.1012,-0.1055,-0.0961,-0.0951,-0.0926,-0.0935,-0.09,-0.0897,-0.0859,-0.086,-0.0861,-0.093,0,0,0,0,0,0,-0.1305,-0.1292,-0.1292,-0.1226,-0.1209,-0.1169,-0.1123,-0.1109,-0.1087,-0.108,-0.1016,-0.1005,-0.096,-0.0931,-0.0922,-0.093,-0.0894,-0.0858,-0.0859,-0.0861,-0.0927,-0.0934,-0.094,0,0,0,0,0,-0.131,-0.1317,-0.1293,-0.1282,-0.1208,-0.117,-0.116,-0.1109,-0.1088,-0.1087,-0.1043,-0.1007,-0.0936,-0.0929,-0.0919,-0.0926,-0.0857,-0.0859,-0.0861,-0.0924,-0.0932,-0.094,0,0,0,0,0,0,-0.1387,-0.1307,-0.128,-0.1265,-0.1225,-0.1157,-0.1155,-0.112,-0.1084,-0.1079,-0.1017,-0.1003,-0.0984,-0.0952,-0.0947,-0.0921,-0.0891,-0.0891,-0.0943,-0.095,-0.0957,-0.0965,-0.0891,0,0,0,0,0,-0.1402,-0.1378,-0.1309,-0.1303,-0.1284,-0.1223,-0.1204,-0.1168,-0.1123,-0.1106,-0.106,-0.1018,-0.0986,-0.0966,-0.0933,-0.0921,-0.0905,-0.092,-0.0927,-0.0933,-0.0934,-0.0922,-0.0928,-0.0869,-0.0869,-0.0869,0,0,-0.1433,-0.1386,-0.1375,-0.1317,-0.1281,-0.1257,-0.1209,-0.1186,-0.1167,-0.1102,-0.1076,-0.1041,-0.0989,-0.097,-0.096,-0.0943,-0.0946,-0.0935,-0.094,-0.0938,-0.0925,-0.0931,-0.0936,-0.087,-0.087,-0.087,0,0,-0.1477,-0.144,-0.143,-0.1395,-0.1341,-0.13,-0.1297,-0.1233,-0.1207,-0.1179,-0.113,-0.1105,-0.1052,-0.1016,-0.0991,-0.1018,-0.0982,-0.1009,-0.1043,-0.1033,-0.1038,-0.1041,-0.105,-0.1053,-0.101,-0.101,-0.101,0,-0.1523,-0.1485,-0.1429,-0.1408,-0.1383,-0.1322,-0.131,-0.1278,-0.1217,-0.12,-0.1182,-0.1111,-0.1073,-0.1043,-0.105,-0.1032,-0.1026,-0.1017,-0.1042,-0.1045,-0.1047,-0.1055,-0.1058,-0.1014,-0.1013,-0.1013,-0.1013,0,-0.1543,-0.1517,-0.1514,-0.1456,-0.143,-0.1414,-0.1354,-0.1334,-0.1299,-0.1259,-0.123,-0.1181,-0.1135,-0.1125,-0.1092,-0.109,-0.1081,-0.1054,-0.1023,-0.1058,-0.1063,-0.1065,-0.1019,-0.1018,-0.1017,-0.1016,0,0,-0.1635,-0.1543,-0.1543,-0.1514,-0.1449,-0.1427,-0.1407,-0.1362,-0.1346,-0.1304,-0.1284,-0.1239,-0.1211,-0.1183,-0.1144,-0.1135,-0.1157,-0.1107,-0.1105,-0.1117,-0.115,-0.1172,-0.1176,-0.1132,-0.1132,-0.1133,-0.1154,0,-0.1668,-0.1629,-0.1577,-0.1555,-0.1529,-0.1469,-0.1451,-0.1408,-0.1369,-0.134,-0.1297,-0.1265,-0.1232,-0.1214,-0.1203,-0.1157,-0.1163,-0.1155,-0.1112,-0.1111,-0.1127,-0.1179,-0.1203,-0.1226,-0.1156,-0.1157,-0.1157,0,-0.1703,-0.1664,-0.164,-0.1573,-0.156,-0.1545,-0.1498,-0.1472,-0.1421,-0.1393,-0.136,-0.1317,-0.129,-0.1262,-0.1224,-0.1219,-0.1198,-0.1173,-0.1172,-0.1166,-0.1137,-0.1174,-0.1232,-0.1235,-0.116,-0.116,-0.116,0,-0.1772,-0.1713,-0.1689,-0.1667,-0.159,-0.158,-0.1547,-0.1495,-0.147,-0.1429,-0.1412,-0.1368,-0.1344,-0.131,-0.1255,-0.124,-0.1222,-0.119,-0.1197,-0.1199,-0.1197,-0.1198,-0.1251,-0.1184,-0.1184,-0.1184,-0.1184,0,-0.1815,-0.1802,-0.1719,-0.1705,-0.1687,-0.1626,-0.161,-0.1571,-0.1525,-0.1501,-0.1446,-0.1425,-0.1354,-0.1324,-0.1281,-0.1254,-0.1244,-0.122,-0.1208,-0.1225,-0.1228,-0.121,-0.1207,-0.1185,-0.1184,-0.1184,-0.1184,0,-0.1889,-0.1833,-0.1803,-0.1732,-0.1713,-0.1704,-0.1642,-0.1625,-0.1582,-0.1552,-0.1541,-0.1474,-0.1435,-0.1376,-0.132,-0.1291,-0.1271,-0.1253,-0.1289,-0.1282,-0.1292,-0.1292,-0.1336,-0.1338,-0.1271,-0.1271,-0.1272,0,-0.192,-0.1909,-0.1835,-0.1815,-0.1784,-0.1753,-0.1727,-0.1665,-0.164,-0.1579,-0.1569,-0.1525,-0.1487,-0.1427,-0.1373,-0.1328,-0.1308,-0.1327,-0.1302,-0.1317,-0.1307,-0.1309,-0.1306,-0.1333,-0.1334,-0.1335,-0.1336,0,-0.1981,-0.1953,-0.1919,-0.1873,-0.1843,-0.1804,-0.1763,-0.1749,-0.1678,-0.1652,-0.1611,-0.1582,-0.1523,-0.148,-0.1428,-0.1392,-0.1352,-0.1344,-0.1343,-0.136,-0.1381,-0.1368,-0.1305,-0.1344,-0.1343,-0.1342,-0.1342,-0.1342,-0.2034,-0.202,-0.1966,-0.1928,-0.1889,-0.1851,-0.1831,-0.1784,-0.1749,-0.1697,-0.1662,-0.1622,-0.1568,-0.1494,-0.146,-0.1427,-0.141,-0.141,-0.1409,-0.141,-0.1415,-0.1386,-0.1418,-0.1417,-0.1417,-0.1417,-0.1417,0,-0.2092,-0.2053,-0.2019,-0.1961,-0.1931,-0.1895,-0.1846,-0.1822,-0.1789,-0.1742,-0.1705,-0.1656,-0.1613,-0.1554,-0.1506,-0.1491,-0.1471,-0.1481,-0.1481,-0.1473,-0.1434,-0.1439,-0.1498,-0.1498,-0.1498,-0.1498,-0.1498,-0.1498,-0.2118,-0.2092,-0.2057,-0.201,-0.197,-0.1932,-0.1907,-0.187,-0.1832,-0.1781,-0.1744,-0.1706,-0.1653,-0.16,-0.1559,-0.1542,-0.1527,-0.1542,-0.152,-0.1484,-0.1477,-0.147,-0.1474,-0.1539,-0.1539,-0.1562,-0.1562,-0.1562]}]]